When you browse on this site, cookies collect data to enhance your experience and personalize the content and advertising you see.
Visit our Privacy Policy to learn more. By continuing to use the site, you agree to this use of cookies and data.
  • In Germany
  • List of Countries
  • For 7 days
  • Water Temperature
  • Weather Map
  • Weather Widgets
  • user-avatar
    Login

    Hourly Weather Brest

    Today, 31 May, Sunday

    Time Temperature Precipitation Wind Pressure Humidity
    00:00 +12°C° 0.6 mm 8 mps 740 mmHg 94%
    01:00 +12°C° 0.6 mm 8 mps 740 mmHg 93%
    02:00 +12°C° 0 mm 8 mps 740 mmHg 88%
    03:00 +12°C° 0 mm 8 mps 741 mmHg 89%
    04:00 +12°C° 0 mm 8 mps 741 mmHg 90%
    05:00 +12°C° 0 mm 7 mps 741 mmHg 90%
    06:00 +12°C° 0.1 mm 7 mps 742 mmHg 90%
    07:00 +12°C° 0.1 mm 7 mps 742 mmHg 90%
    08:00 +12°C° 0 mm 7 mps 743 mmHg 88%
    09:00 +12°C° 0.1 mm 7 mps 743 mmHg 88%
    10:00 +12°C° 0.1 mm 7 mps 744 mmHg 88%
    11:00 +12°C° 0.1 mm 7 mps 744 mmHg 89%
    12:00 +12°C° 0 mm 7 mps 745 mmHg 87%
    13:00 +12°C° 0 mm 7 mps 745 mmHg 86%
    14:00 +13°C° 0 mm 6 mps 746 mmHg 86%
    15:00 +14°C° 0.1 mm 6 mps 746 mmHg 85%
    16:00 +14°C° 0.1 mm 6 mps 746 mmHg 83%
    17:00 +15°C° 0.1 mm 5 mps 746 mmHg 82%
    18:00 +14°C° 0.1 mm 5 mps 747 mmHg 83%
    19:00 +14°C° 0.1 mm 4 mps 747 mmHg 84%
    20:00 +14°C° 0.1 mm 4 mps 748 mmHg 85%
    21:00 +13°C° 0.1 mm 4 mps 748 mmHg 85%
    22:00 +12°C° 0.1 mm 4 mps 748 mmHg 85%
    23:00 +11°C° 0.1 mm 4 mps 748 mmHg 85%

    Tomorrow, 1 June, Monday

    Time Temperature Precipitation Wind Pressure Humidity
    00:00 +11°C° 0 mm 4 mps 749 mmHg 83%
    01:00 +10°C° 0 mm 4 mps 749 mmHg 82%
    02:00 +8°C° 0 mm 4 mps 750 mmHg 80%
    03:00 +7°C° 0 mm 4 mps 750 mmHg 80%
    04:00 +7°C° 0 mm 4 mps 750 mmHg 80%
    05:00 +6°C° 0 mm 4 mps 750 mmHg 80%
    06:00 +7°C° 0 mm 5 mps 750 mmHg 76%
    07:00 +9°C° 0 mm 5 mps 750 mmHg 73%
    08:00 +10°C° 0 mm 5 mps 751 mmHg 69%
    09:00 +11°C° 0 mm 6 mps 751 mmHg 65%
    10:00 +13°C° 0 mm 6 mps 751 mmHg 61%
    11:00 +14°C° 0 mm 6 mps 751 mmHg 57%
    12:00 +14°C° 0 mm 6 mps 751 mmHg 56%
    13:00 +14°C° 0 mm 6 mps 750 mmHg 55%
    14:00 +14°C° 0 mm 7 mps 750 mmHg 54%
    15:00 +14°C° 0.1 mm 6 mps 750 mmHg 56%
    16:00 +14°C° 0.1 mm 6 mps 750 mmHg 57%
    17:00 +13°C° 0.1 mm 5 mps 750 mmHg 58%
    18:00 +12°C° 0.1 mm 5 mps 750 mmHg 64%
    19:00 +11°C° 0.1 mm 4 mps 750 mmHg 69%
    20:00 +10°C° 0.1 mm 3 mps 749 mmHg 74%
    21:00 +9°C° 0 mm 3 mps 749 mmHg 76%
    22:00 +8°C° 0 mm 3 mps 749 mmHg 78%
    23:00 +7°C° 0 mm 3 mps 749 mmHg 80%

    Day after tomorrow, 2 June, Tuesday

    Time Temperature Precipitation Wind Pressure Humidity
    00:00 +7°C° 0 mm 3 mps 749 mmHg 81%
    01:00 +7°C° 0 mm 3 mps 748 mmHg 82%
    02:00 +5°C° 0 mm 4 mps 748 mmHg 84%
    03:00 +5°C° 0 mm 4 mps 748 mmHg 83%
    04:00 +5°C° 0 mm 4 mps 747 mmHg 81%
    05:00 +5°C° 0 mm 5 mps 747 mmHg 80%
    06:00 +7°C° 0 mm 6 mps 746 mmHg 77%
    07:00 +8°C° 0 mm 7 mps 746 mmHg 73%
    08:00 +10°C° 0 mm 8 mps 746 mmHg 69%
    09:00 +11°C° 0 mm 8 mps 746 mmHg 67%
    10:00 +12°C° 0 mm 8 mps 745 mmHg 65%
    11:00 +13°C° 0 mm 8 mps 745 mmHg 63%
    12:00 +14°C° 0.1 mm 7 mps 744 mmHg 65%
    13:00 +14°C° 0.1 mm 6 mps 744 mmHg 67%
    14:00 +13°C° 0.1 mm 6 mps 744 mmHg 70%
    15:00 +11°C° 0.3 mm 6 mps 743 mmHg 75%
    16:00 +10°C° 0.3 mm 6 mps 743 mmHg 81%
    17:00 +9°C° 0.3 mm 6 mps 743 mmHg 86%
    18:00 +9°C° 0.1 mm 6 mps 743 mmHg 88%
    19:00 +9°C° 0.1 mm 6 mps 743 mmHg 89%
    20:00 +8°C° 0.1 mm 5 mps 743 mmHg 90%
    21:00 +8°C° 0 mm 5 mps 743 mmHg 91%
    22:00 +8°C° 0 mm 5 mps 742 mmHg 92%
    23:00 +8°C° 0 mm 5 mps 742 mmHg 92%

    3 June, Wednesday

    Time Temperature Precipitation Wind Pressure Humidity
    00:00 +8°C° 0 mm 4 mps 742 mmHg 92%
    01:00 +8°C° 0 mm 4 mps 742 mmHg 92%
    02:00 +8°C° 0 mm 4 mps 742 mmHg 92%
    03:00 +8°C° 0 mm 4 mps 742 mmHg 92%
    04:00 +9°C° 0 mm 3 mps 741 mmHg 93%
    05:00 +9°C° 0 mm 3 mps 741 mmHg 93%
    06:00 +9°C° 0.1 mm 3 mps 741 mmHg 90%
    07:00 +10°C° 0.1 mm 4 mps 741 mmHg 87%
    08:00 +11°C° 0.1 mm 4 mps 741 mmHg 84%
    09:00 +12°C° 0.3 mm 4 mps 741 mmHg 81%
    10:00 +12°C° 0.3 mm 4 mps 741 mmHg 77%
    11:00 +13°C° 0.3 mm 4 mps 741 mmHg 74%
    12:00 +13°C° 0.9 mm 4 mps 741 mmHg 74%
    13:00 +14°C° 0.9 mm 4 mps 741 mmHg 75%
    14:00 +14°C° 0.9 mm 4 mps 741 mmHg 75%
    15:00 +14°C° 0.9 mm 4 mps 741 mmHg 76%
    16:00 +14°C° 0.9 mm 4 mps 741 mmHg 76%
    17:00 +14°C° 0.9 mm 3 mps 740 mmHg 76%
    18:00 +13°C° 0.5 mm 3 mps 740 mmHg 80%
    19:00 +12°C° 0.5 mm 3 mps 740 mmHg 85%
    20:00 +12°C° 0.5 mm 2 mps 740 mmHg 89%
    21:00 +10°C° 0 mm 2 mps 740 mmHg 91%
    22:00 +9°C° 0 mm 2 mps 740 mmHg 92%
    23:00 +8°C° 0 mm 2 mps 740 mmHg 94%

    4 June, Thursday

    Time Temperature Precipitation Wind Pressure Humidity
    00:00 +8°C° 0 mm 2 mps 740 mmHg 94%
    01:00 +8°C° 0 mm 2 mps 740 mmHg 94%
    02:00 +8°C° 0 mm 2 mps 740 mmHg 94%
    03:00 +8°C° 0 mm 2 mps 740 mmHg 95%
    04:00 +8°C° 0 mm 2 mps 740 mmHg 95%
    05:00 +8°C° 0 mm 2 mps 740 mmHg 96%
    06:00 +9°C° 0 mm 2 mps 740 mmHg 93%
    07:00 +12°C° 0 mm 2 mps 740 mmHg 89%
    08:00 +13°C° 0 mm 2 mps 740 mmHg 85%
    09:00 +14°C° 0.1 mm 3 mps 740 mmHg 79%
    10:00 +16°C° 0.1 mm 3 mps 740 mmHg 73%
    11:00 +17°C° 0.1 mm 4 mps 740 mmHg 67%
    12:00 +18°C° 0.1 mm 4 mps 740 mmHg 63%
    13:00 +19°C° 0.1 mm 5 mps 740 mmHg 60%
    14:00 +19°C° 0.1 mm 5 mps 739 mmHg 56%
    15:00 +19°C° 0 mm 4 mps 739 mmHg 57%
    16:00 +19°C° 0 mm 4 mps 739 mmHg 57%
    17:00 +19°C° 0 mm 3 mps 739 mmHg 58%
    18:00 +18°C° 0 mm 3 mps 738 mmHg 63%
    19:00 +17°C° 0 mm 2 mps 738 mmHg 68%
    20:00 +15°C° 0 mm 2 mps 738 mmHg 73%
    21:00 +15°C° 0 mm 2 mps 738 mmHg 74%
    22:00 +13°C° 0 mm 3 mps 738 mmHg 76%
    23:00 +13°C° 0 mm 3 mps 738 mmHg 77%

    5 June, Friday

    Time Temperature Precipitation Wind Pressure Humidity
    00:00 +13°C° 0.2 mm 3 mps 737 mmHg 82%
    01:00 +14°C° 0.2 mm 2 mps 737 mmHg 88%
    02:00 +15°C° 0.2 mm 2 mps 736 mmHg 94%
    03:00 +15°C° 1.1 mm 2 mps 736 mmHg 95%
    04:00 +14°C° 1.1 mm 3 mps 736 mmHg 96%
    05:00 +14°C° 1.1 mm 4 mps 735 mmHg 97%
    06:00 +14°C° 2.2 mm 4 mps 736 mmHg 96%
    07:00 +14°C° 2.2 mm 4 mps 736 mmHg 96%
    08:00 +15°C° 2.2 mm 5 mps 736 mmHg 95%
    09:00 +15°C° 0.3 mm 6 mps 737 mmHg 90%
    10:00 +16°C° 0.3 mm 7 mps 737 mmHg 85%
    11:00 +17°C° 0.3 mm 8 mps 738 mmHg 80%
    12:00 +17°C° 0 mm 8 mps 739 mmHg 73%
    13:00 +18°C° 0 mm 8 mps 739 mmHg 67%
    14:00 +18°C° 0 mm 8 mps 740 mmHg 60%
    15:00 +18°C° 0 mm 7 mps 740 mmHg 60%
    16:00 +19°C° 0 mm 6 mps 740 mmHg 61%
    17:00 +19°C° 0 mm 5 mps 741 mmHg 62%
    18:00 +18°C° 0 mm 4 mps 741 mmHg 67%
    19:00 +17°C° 0 mm 3 mps 741 mmHg 72%
    20:00 +15°C° 0 mm 1 mps 741 mmHg 78%
    21:00 +15°C° 0 mm 2 mps 741 mmHg 79%
    22:00 +14°C° 0 mm 2 mps 742 mmHg 80%
    23:00 +14°C° 0 mm 2 mps 742 mmHg 82%
    Show more